JASON-3

Last updated on Thu Oct 30 2025 00:02:31 GMT+0000 (Coordinated Universal Time)

1 41240U 16002A 25302.47836859 -.00000017 00000+0 17815-3 0 9995 2 41240 66.0412 250.8771 0007708 268.2954 91.7182 12.87626570457547
UTC large
Height (km)
Speed (km/s)
/
Latitude / Longitude
Inclination (degrees)
Orbital Period (minutes)
Azimuth
Elevation
Range (km)
Doppler Factor

Next 0 passes for location: London (51.5072 / 0.1276)

Sorry there are no passes over London.